Precipitable_Water
0.42 0.33 0.29 0.34 0.38 0.38 0.34 0.28 0.30 0.30 0.30 0.26 0.26 0.31 0.38 0.60 0.78 0.83 0.83 0.91 0.99 1.06 1.20 1.32 1.27 1.17 1.05 0.92 0.72 0.61 0.55 0.52 0.54 0.53 0.53 0.54 0.53 0.56 0.57 0.59 0.58 0.56 0.55 0.55
0.36 0.27 0.34 0.36 0.36 0.33 0.33 0.29 0.28 0.31 0.30 0.24 0.25 0.23 0.28 0.40 0.56 0.76 0.86 0.86 0.90 1.04 1.08 1.26 1.33 1.28 1.16 1.05 0.89 0.71 0.61 0.55 0.56 0.56 0.57 0.58 0.58 0.59 0.59 0.60 0.59 0.58 0.57 0.56
0.28 0.28 0.35 0.33 0.30 0.30 0.28 0.27 0.26 0.27 0.28 0.27 0.24 0.19 0.20 0.29 0.42 0.58 0.67 0.80 0.84 0.84 0.98 1.06 1.29 1.32 1.22 1.14 1.00 0.84 0.70 0.61 0.59 0.61 0.62 0.64 0.65 0.63 0.59 0.59 0.59 0.61 0.62 0.62
0.31 0.33 0.30 0.30 0.28 0.28 0.24 0.30 0.29 0.26 0.24 0.22 0.27 0.15 0.20 0.21 0.27 0.36 0.54 0.66 0.72 0.77 0.97 1.02 1.11 1.24 1.24 1.17 1.10 0.97 0.83 0.70 0.65 0.65 0.64 0.64 0.61 0.57 0.61 0.62 0.64 0.64 0.67 0.69
0.30 0.31 0.29 0.26 0.27 0.29 0.25 0.29 0.26 0.26 0.25 0.22 0.23 0.16 0.16 0.24 0.21 0.25 0.34 0.56 0.65 0.77 0.81 0.91 1.01 1.15 1.32 1.25 1.18 1.13 0.99 0.83 0.72 0.70 0.72 0.70 0.66 0.67 0.70 0.69 0.69 0.73 0.75 0.76
0.32 0.41 0.39 0.32 0.31 0.31 0.31 0.27 0.26 0.24 0.23 0.18 0.22 0.18 0.17 0.21 0.24 0.25 0.28 0.39 0.54 0.67 0.74 0.79 0.94 1.10 1.18 1.25 1.29 1.21 1.11 1.02 0.90 0.82 0.80 0.77 0.76 0.78 0.76 0.75 0.75 0.77 0.79 0.79
0.28 0.28 0.35 0.41 0.31 0.34 0.31 0.25 0.18 0.16 0.19 0.17 0.22 0.17 0.18 0.25 0.25 0.27 0.29 0.30 0.49 0.64 0.66 0.73 0.85 0.93 1.11 1.17 1.28 1.25 1.18 1.10 1.03 0.91 0.87 0.90 0.92 0.92 0.87 0.86 0.85 0.82 0.81 0.83
0.19 0.20 0.25 0.32 0.36 0.31 0.30 0.27 0.20 0.12 0.12 0.13 0.20 0.15 0.22 0.27 0.26 0.25 0.27 0.31 0.36 0.43 0.63 0.69 0.79 0.96 1.02 1.15 1.20 1.21 1.19 1.14 1.13 1.01 0.99 1.05 1.05 1.03 1.01 0.97 0.95 0.92 0.89 0.88
0.17 0.16 0.26 0.27 0.34 0.35 0.31 0.30 0.30 0.23 0.22 0.17 0.17 0.20 0.23 0.25 0.24 0.25 0.26 0.28 0.33 0.38 0.42 0.50 0.62 0.80 0.89 0.98 1.12 1.10 1.16 1.18 1.18 1.14 1.12 1.11 1.10 1.07 1.04 1.05 1.06 1.02 1.01 0.99
0.22 0.16 0.23 0.25 0.30 0.33 0.30 0.35 0.27 0.30 0.20 0.15 0.16 0.16 0.18 0.22 0.23 0.24 0.25 0.27 0.31 0.38 0.41 0.45 0.48 0.56 0.71 0.91 1.05 1.07 1.08 1.11 1.17 1.22 1.18 1.16 1.12 1.12 1.09 1.04 1.04 1.04 1.05 1.01
0.22 0.20 0.17 0.23 0.23 0.22 0.25 0.26 0.28 0.29 0.28 0.21 0.17 0.18 0.25 0.22 0.23 0.24 0.27 0.27 0.30 0.34 0.41 0.45 0.50 0.54 0.59 0.66 0.88 1.03 1.11 1.07 1.08 1.15 1.15 1.12 1.11 1.09 1.12 1.11 1.07 1.04 0.99 0.95
0.23 0.18 0.16 0.17 0.23 0.27 0.25 0.21 0.23 0.20 0.20 0.25 0.25 0.21 0.27 0.25 0.25 0.25 0.25 0.27 0.30 0.32 0.37 0.42 0.45 0.51 0.56 0.59 0.68 0.82 0.96 1.03 1.11 1.13 1.15 1.11 1.12 1.15 1.14 1.06 1.06 1.03 0.99 0.92
0.22 0.18 0.14 0.13 0.21 0.23 0.21 0.22 0.23 0.22 0.23 0.20 0.21 0.23 0.35 0.34 0.32 0.30 0.27 0.27 0.27 0.29 0.34 0.39 0.45 0.47 0.51 0.59 0.62 0.64 0.74 0.84 0.99 1.03 1.07 1.15 1.12 1.08 1.09 1.04 1.06 1.03 0.91 0.83
0.25 0.19 0.16 0.13 0.15 0.17 0.15 0.17 0.20 0.24 0.19 0.20 0.21 0.24 0.29 0.31 0.31 0.32 0.31 0.29 0.28 0.28 0.28 0.36 0.41 0.46 0.53 0.60 0.65 0.66 0.69 0.73 0.76 0.86 0.98 1.03 1.07 1.05 1.05 1.02 0.96 0.89 0.81 0.74
0.26 0.17 0.18 0.20 0.21 0.22 0.18 0.18 0.20 0.21 0.21 0.20 0.21 0.25 0.29 0.34 0.36 0.38 0.38 0.33 0.29 0.27 0.29 0.34 0.40 0.47 0.50 0.55 0.64 0.69 0.68 0.69 0.75 0.80 0.88 0.93 0.97 1.00 0.99 0.93 0.89 0.79 0.72 0.66
0.29 0.19 0.20 0.20 0.22 0.22 0.19 0.21 0.21 0.25 0.22 0.23 0.23 0.25 0.33 0.38 0.39 0.40 0.38 0.36 0.33 0.32 0.30 0.33 0.40 0.48 0.51 0.54 0.57 0.65 0.69 0.71 0.75 0.77 0.79 0.84 0.86 0.85 0.83 0.79 0.73 0.69 0.63 0.57
0.28 0.28 0.23 0.18 0.23 0.19 0.16 0.21 0.22 0.25 0.27 0.25 0.21 0.26 0.34 0.35 0.37 0.40 0.42 0.39 0.36 0.33 0.33 0.36 0.42 0.46 0.49 0.54 0.60 0.61 0.69 0.75 0.74 0.73 0.76 0.79 0.79 0.78 0.77 0.74 0.66 0.62 0.53 0.48
0.26 0.25 0.25 0.20 0.21 0.14 0.19 0.26 0.27 0.27 0.27 0.27 0.29 0.29 0.34 0.36 0.39 0.41 0.44 0.43 0.41 0.40 0.38 0.39 0.43 0.51 0.54 0.55 0.59 0.63 0.66 0.68 0.72 0.76 0.79 0.78 0.76 0.71 0.67 0.63 0.54 0.50 0.46 0.41
0.35 0.28 0.23 0.21 0.19 0.19 0.22 0.27 0.26 0.25 0.24 0.32 0.29 0.32 0.37 0.39 0.40 0.41 0.44 0.47 0.47 0.47 0.45 0.44 0.46 0.52 0.58 0.59 0.61 0.62 0.63 0.64 0.64 0.64 0.64 0.62 0.58 0.55 0.53 0.51 0.48 0.45 0.41 0.40
0.34 0.35 0.28 0.25 0.21 0.17 0.24 0.31 0.35 0.33 0.22 0.30 0.35 0.36 0.37 0.39 0.32 0.37 0.44 0.46 0.49 0.52 0.54 0.52 0.52 0.56 0.58 0.59 0.61 0.60 0.59 0.58 0.57 0.57 0.57 0.56 0.55 0.53 0.51 0.48 0.44 0.42 0.42 0.43
0.30 0.30 0.26 0.24 0.22 0.21 0.28 0.31 0.36 0.22 0.25 0.36 0.36 0.37 0.37 0.35 0.38 0.44 0.46 0.47 0.49 0.51 0.54 0.58 0.59 0.60 0.61 0.64 0.62 0.60 0.58 0.56 0.57 0.57 0.55 0.54 0.52 0.50 0.48 0.44 0.44 0.48 0.49 0.49
0.24 0.23 0.21 0.20 0.18 0.16 0.31 0.31 0.25 0.30 0.36 0.36 0.36 0.38 0.40 0.41 0.42 0.46 0.47 0.45 0.47 0.50 0.51 0.56 0.59 0.62 0.65 0.68 0.69 0.65 0.61 0.61 0.60 0.58 0.56 0.55 0.53 0.52 0.48 0.51 0.54 0.53 0.49 0.45
0.19 0.21 0.19 0.21 0.20 0.28 0.33 0.31 0.34 0.36 0.35 0.33 0.34 0.36 0.38 0.40 0.41 0.42 0.43 0.45 0.47 0.49 0.51 0.55 0.58 0.59 0.62 0.68 0.70 0.67 0.67 0.66 0.65 0.64 0.61 0.59 0.57 0.53 0.50 0.55 0.55 0.48 0.46 0.39
0.26 0.32 0.29 0.29 0.27 0.30 0.32 0.33 0.33 0.35 0.34 0.35 0.37 0.36 0.38 0.38 0.42 0.43 0.43 0.46 0.47 0.48 0.50 0.56 0.57 0.57 0.57 0.63 0.67 0.69 0.68 0.67 0.64 0.60 0.57 0.57 0.53 0.47 0.47 0.54 0.51 0.46 0.39 0.35
0.28 0.28 0.26 0.26 0.30 0.33 0.33 0.38 0.43 0.42 0.44 0.41 0.39 0.39 0.38 0.38 0.39 0.42 0.42 0.43 0.45 0.49 0.51 0.54 0.57 0.58 0.58 0.60 0.63 0.65 0.66 0.64 0.60 0.58 0.56 0.53 0.48 0.45 0.50 0.52 0.47 0.41 0.36 0.33
0.29 0.27 0.23 0.22 0.32 0.32 0.33 0.39 0.44 0.44 0.44 0.43 0.42 0.40 0.39 0.38 0.38 0.42 0.42 0.44 0.45 0.47 0.50 0.50 0.51 0.55 0.57 0.59 0.60 0.62 0.62 0.60 0.58 0.56 0.53 0.48 0.47 0.49 0.51 0.46 0.41 0.38 0.35 0.32
Wind_Speed
16 17 14 12 9 7 4 2 2 6 9 18 24 25 27 27 28 33 31 34 28 26 24 26 30 32 33 33 33 33 32 31 30 28 27 26 24 22 21 19 18 17 16 16
15 18 16 11 8 6 5 2 1 5 6 13 18 23 28 27 28 29 31 31 34 30 29 25 29 33 33 34 34 34 33 33 32 30 29 27 25 24 23 21 20 19 18 17
18 18 15 12 11 10 5 6 4 4 8 12 14 21 25 27 28 29 32 32 32 34 33 27 26 32 34 35 35 34 34 34 33 32 30 28 27 25 24 23 22 21 20 19
16 18 17 14 12 11 5 6 6 5 6 7 9 11 19 24 28 30 31 33 31 31 35 34 28 29 33 34 35 36 35 35 34 34 32 31 29 27 26 25 23 22 21 21
16 17 17 16 14 12 9 8 7 6 7 8 11 13 16 16 22 26 28 31 32 30 32 36 39 28 29 33 35 36 36 36 36 35 34 32 30 28 27 26 25 24 23 23
17 16 14 14 14 11 12 9 7 6 6 7 5 10 13 14 15 20 24 29 32 33 32 31 34 34 35 34 33 34 36 36 37 36 35 33 31 29 28 27 26 26 25 24
17 15 16 16 15 9 15 13 7 5 4 6 7 12 16 16 14 18 20 22 28 32 32 32 30 32 39 35 36 35 36 37 38 37 36 34 32 31 30 29 28 27 27 26
17 14 17 18 15 13 12 12 9 8 9 11 10 10 9 11 14 16 19 21 23 27 29 32 33 32 33 38 36 35 37 37 38 38 37 35 33 32 31 31 30 29 29 28
17 14 13 14 15 14 12 10 10 9 9 7 5 10 14 15 14 14 16 19 21 23 26 30 32 35 35 36 41 37 37 38 38 39 39 37 33 32 32 31 30 28 28 27
15 14 12 14 13 11 11 12 9 7 9 11 9 11 9 13 13 12 12 14 18 21 24 27 29 32 36 36 38 38 42 40 41 40 41 38 35 33 33 32 31 29 27 27
16 13 15 15 11 14 11 10 9 10 9 9 12 7 7 9 14 17 18 18 19 20 23 25 27 29 32 36 37 39 40 42 41 40 40 40 38 36 33 33 30 30 28 27
15 16 15 19 13 12 12 13 13 11 11 11 12 14 7 9 12 14 20 23 24 24 25 26 27 28 30 34 34 37 40 42 41 42 42 40 39 37 37 33 30 31 29 28
15 14 17 14 11 11 13 14 15 16 15 17 15 12 10 14 13 16 20 24 25 27 28 28 28 29 29 31 33 34 38 40 40 40 40 39 38 36 35 34 32 30 28 28
17 16 17 19 22 23 23 23 19 17 16 17 19 24 23 21 22 22 21 21 24 26 27 27 28 28 28 29 30 31 33 35 37 39 40 39 38 36 34 31 31 30 29 29
18 19 21 23 24 25 25 24 23 22 23 20 24 23 25 25 23 24 22 21 20 22 24 26 27 26 26 26 28 29 30 31 34 35 36 36 36 34 33 32 30 30 30 29
19 22 23 24 26 23 22 24 25 24 22 23 25 26 25 21 20 20 19 20 20 19 20 23 24 24 24 24 25 26 28 30 30 31 33 34 34 33 32 31 31 29 28 28
22 21 23 26 23 22 21 17 18 17 17 19 21 23 19 20 19 18 16 16 16 16 17 19 22 24 24 23 24 24 24 26 28 29 29 31 32 31 30 30 29 28 28 27
28 26 21 24 24 19 18 18 20 21 24 24 24 25 23 20 17 17 16 16 16 16 16 17 20 23 24 24 23 22 23 24 26 28 29 30 30 30 30 29 29 28 27 27
22 21 21 20 22 29 31 21 16 19 24 22 25 24 21 18 17 18 17 18 19 18 18 18 18 20 22 24 25 25 25 25 26 27 29 29 29 29 28 28 28 27 27 27
20 23 22 22 24 24 21 19 22 23 27 17 17 19 19 17 19 19 18 19 21 22 22 21 20 19 20 22 24 26 27 27 27 28 28 28 28 28 28 28 27 27 27 27
22 23 26 28 28 29 28 29 23 21 19 19 20 22 24 25 27 24 24 25 26 26 25 24 24 23 23 23 24 25 26 28 28 28 28 28 28 28 27 27 27 26 26 26
27 24 24 26 28 31 25 19 22 24 27 29 30 30 31 31 32 33 32 31 30 28 27 27 26 26 26 27 27 26 26 26 27 28 28 28 28 27 27 26 26 25 24 24
31 32 34 34 33 32 30 34 37 40 40 38 37 36 36 36 37 38 37 35 33 32 30 29 27 26 26 28 28 28 28 28 28 28 28 28 27 27 26 25 24 24 24 24
37 36 38 40 39 40 40 42 42 42 42 42 39 40 40 40 41 40 39 35 32 31 30 29 28 28 27 27 28 28 28 28 28 27 27 26 26 26 25 24 24 24 24 24
38 43 46 47 46 46 44 41 40 42 42 41 42 42 42 41 41 41 41 39 37 34 32 30 29 28 28 28 29 29 29 28 27 27 27 26 26 25 24 25 24 24 24 24
34 33 35 36 40 42 44 44 45 45 43 45 46 45 44 45 45 43 41 39 38 36 34 33 31 30 28 28 28 29 29 28 28 27 27 26 25 25 25 25 25 24 24 25
Wind_Direction
22 28 24 11 10 3 354 253 222 209 218 215 218 222 220 219 217 217 216 216 220 222 216 215 215 215 215 215 215 216 216 217 218 220 221 224 226 230 233 236 237 240 245 249
23 26 18 12 4 355 355 338 306 198 223 222 216 227 225 221 224 221 220 218 221 221 220 223 220 219 219 219 218 218 218 218 220 222 224 226 228 232 234 237 240 242 245 250
21 19 11 15 14 3 30 9 344 290 262 230 236 235 228 226 225 227 227 226 225 228 224 224 228 222 221 221 220 220 220 220 221 223 224 227 229 233 236 238 242 245 248 250
22 18 19 18 22 9 3 358 327 302 277 233 237 231 216 227 226 229 229 228 229 230 227 230 233 227 223 222 221 221 221 222 223 224 225 227 231 234 237 239 242 245 247 251
19 12 14 19 15 6 6 339 312 301 283 263 223 241 244 227 234 236 233 231 231 231 229 234 235 230 224 221 222 222 223 223 224 225 227 229 232 235 237 239 242 247 250 257
11 14 11 7 2 8 354 343 313 292 282 253 246 246 247 234 240 242 238 234 232 232 231 233 229 234 230 224 221 223 225 225 226 226 227 229 231 233 236 239 243 248 253 257
4 12 13 8 358 10 4 3 2 352 297 276 256 257 244 254 254 243 243 244 237 234 236 234 233 230 226 225 225 228 228 228 227 226 226 229 232 235 238 241 246 250 253 257
356 358 6 7 10 354 357 2 8 350 339 309 266 252 244 237 254 251 248 247 243 242 237 233 232 235 230 227 227 230 229 229 227 226 225 228 233 239 241 243 247 252 254 256
352 350 355 359 360 1 0 358 350 336 329 317 296 266 261 247 246 254 252 250 247 244 243 244 243 240 235 235 230 233 231 229 227 226 228 228 234 240 243 245 248 249 251 256
347 336 349 348 344 354 352 353 348 346 335 336 320 305 264 242 245 252 258 259 256 250 247 247 246 243 238 238 236 237 232 232 232 230 231 232 237 244 244 245 244 247 251 255
334 332 334 333 337 336 338 341 337 337 327 325 322 319 331 278 258 257 258 265 266 259 255 253 251 250 247 242 240 237 235 234 233 231 232 236 240 242 243 243 244 247 254 256
332 324 323 318 332 327 320 323 322 321 320 305 306 301 314 320 281 271 264 264 265 264 260 257 256 253 249 246 243 240 238 236 236 234 234 237 240 241 240 241 245 250 253 255
327 322 321 325 327 324 318 315 305 306 306 293 292 292 303 299 292 283 278 271 269 265 263 261 257 255 254 249 246 245 241 237 235 234 235 236 239 240 239 241 243 247 251 256
313 309 301 304 308 314 307 304 296 293 295 291 286 290 297 299 297 293 288 285 279 269 262 261 259 256 254 250 247 245 243 240 238 237 236 236 237 240 240 240 247 243 252 258
302 300 300 298 303 304 299 297 295 286 278 281 291 293 296 299 298 296 288 289 286 278 265 258 256 255 253 250 247 244 242 240 238 235 234 234 235 237 238 242 242 249 255 256
298 297 302 300 302 300 300 296 291 290 281 282 283 287 298 298 295 297 289 289 289 284 273 261 255 252 251 250 247 244 241 237 233 230 230 230 231 234 236 239 244 248 252 254
289 298 302 297 303 304 300 298 291 291 289 284 287 294 304 298 296 296 293 292 291 290 282 266 257 253 251 249 246 242 237 232 229 228 228 229 231 232 234 236 243 246 250 253
284 286 293 298 301 290 295 303 298 291 293 290 284 292 294 292 289 288 286 287 292 294 291 280 266 256 251 246 242 239 235 231 228 227 227 228 229 232 235 239 242 245 248 252
278 281 284 291 287 292 296 298 296 293 295 294 288 290 286 282 289 285 281 283 285 288 289 286 276 261 251 245 241 237 234 233 231 230 230 230 231 231 233 237 241 245 249 254
288 280 278 284 288 290 301 299 301 299 298 293 289 291 283 278 281 291 285 284 286 286 282 281 275 264 254 246 240 238 236 235 234 232 231 232 232 234 236 239 242 247 251 256
289 286 274 276 281 284 292 295 291 285 296 296 293 290 279 276 278 282 285 286 285 285 281 275 270 263 256 248 242 239 237 236 234 232 232 232 234 236 237 240 243 248 253 257
284 285 283 282 280 286 293 289 280 293 293 295 293 290 286 282 279 279 284 284 284 280 277 273 269 262 256 249 244 241 238 235 233 231 232 232 232 234 236 239 245 249 251 254
284 281 282 277 278 284 289 287 285 287 288 288 286 285 284 283 282 282 282 282 280 276 275 271 265 261 256 248 244 241 239 235 234 233 232 232 233 235 237 242 245 247 251 258
285 286 282 282 282 282 285 287 286 287 286 286 284 283 282 281 280 280 280 279 277 275 272 267 262 259 256 250 245 241 237 235 233 231 230 231 233 234 239 244 247 250 255 263
286 287 285 281 284 287 287 288 289 287 286 285 284 283 281 280 279 278 277 275 275 273 270 264 260 258 255 250 244 240 237 234 232 231 231 233 234 237 242 247 248 254 260 267
290 288 287 285 289 290 289 290 289 286 285 285 284 283 281 279 278 276 274 274 272 268 266 261 259 257 252 247 243 238 235 233 231 230 232 233 236 240 245 247 252 257 263 269